Tracking 19634 objects as of 22-May-2019
HD Live streaming from Space Station
objects crossing your sky now

MIDAS 4 DEB

Track MIDAS 4 DEB now!
10-day predictions


NORAD ID: 194
Int'l Code: 1961-028C
Perigee: 3,247.3 km
Apogee: 3,982.0 km
Inclination: 95.9 °
Period: 165.5 minutes
Semi major axis: 9985 km
RCS: 0.6373 m2 (medium)
Launch date: October 21, 1961
Source: United States (US)
Launch site: AIR FORCE WESTERN TEST RANGE (AFWTR)

Note: This is SATELLITE DEBRIS
aabbcc
Your satellite tracking list
Your tracking list is empty




NASA's NSSDC Master Catalog

Two Line Element Set (TLE):
1   194U 61028C   19141.25279294 -.00000034  00000-0 -12602-1 0  9998
2   194  95.8622  61.3260 0367914 212.5990 145.1652  8.70040288828823
Source of the keplerian elements: AFSPC